Weather History for Wilmington, OH

Change the Weather History Date:

Saturday, January 26, 2013

  Actual Average (KDAY) Record (KDAY)
Temperature  
Mean Temperature 24 °F 28 °F  
Max Temperature 30 °F 35 °F 67 °F (1950)
Min Temperature 19 °F 20 °F -11 °F (1897)
Degree Days  
Heating Degree Days 40 37  
Month to date heating degree days 979  
Since 1 July heating degree days 3138  
Cooling Degree Days 0 0  
Month to date cooling degree days 0  
Year to date cooling degree days 0  
Moisture  
Dew Point 18 °F    
Average Humidity 78    
Maximum Humidity 96    
Minimum Humidity 56    
Precipitation  
Precipitation 0.00 in 0.08 in 3.38 in (1952)
Month to date precipitation 2.31  
Year to date precipitation 2.31  
Snow  
Snow 0.00 in 0.20 in 12.20 in (1978)
Month to date snowfall 6.6  
Since 1 July snowfall 12.1  
Snow Depth -    
Sea Level Pressure  
Sea Level Pressure 30.31 in    
Wind  
Wind Speed 9 mph (WNW)    
Max Wind Speed 14 mph    
Max Gust Speed -    
Visibility 7 miles    
Events      
T = Trace of Precipitation, MM = Missing Value Source: NWS Daily Summary

Daily Weather History Graph

Daily Weather History Graph

Search for Another Location

Airport:

Trip Planner

Search our weather history database for the weather conditions in past years. The results will help you decide how hot, cold, wet, or windy it might be!

Date:

Astronomy

Jan. 26, 2013 Rise Set
Actual Time 7:47 AM EST 5:48 PM EST
Civil Twilight 7:18 AM EST 6:17 PM EST
Nautical Twilight 6:46 AM EST 6:50 PM EST
Astronomical Twilight 6:14 AM EST 7:21 PM EST
Moon 5:42 PM EST (1/26) 7:04 AM EST (1/26)
Length of Visible Light 10h 59m
Length of Day
10h 01m
Full, 100% of the Moon is Illuminated
Jan 26
Full
Jan 26
Full
Feb 3
Last Quarter
Feb 10
New
Feb 17
First Quarter

Hourly Weather History & Observations

Time (EST) Temp. Windchill Dew Point Humidity Pressure Visibility Wind Dir Wind Speed Gust Speed Precip Events Conditions
12:54 AM 25.0 °F 14.8 °F 21.0 °F 85% 30.19 in 7.0 mi SW 10.4 mph - N/A   Overcast
1:54 AM 25.0 °F 13.6 °F 21.0 °F 85% 30.20 in 6.0 mi SW 12.7 mph - N/A   Overcast
2:00 AM 24.8 °F 12.9 °F 21.2 °F 86% 30.11 in 6.0 mi SW 13.8 mph - N/A   Overcast
2:38 AM 24.8 °F 14.0 °F 21.2 °F 86% 30.12 in 5.0 mi SW 11.5 mph - N/A   Overcast
2:54 AM 24.1 °F 12.5 °F 21.0 °F 88% 30.22 in 5.0 mi SW 12.7 mph - N/A   Overcast
3:18 AM 21.2 °F 10.1 °F 19.4 °F 93% 30.11 in 4.0 mi SSW 10.4 mph - N/A   Mostly Cloudy
3:47 AM 19.4 °F 7.9 °F 17.6 °F 93% 30.11 in 4.0 mi SW 10.4 mph - N/A   Scattered Clouds
3:54 AM 19.0 °F 8.2 °F 18.0 °F 96% 30.22 in 4.0 mi SW 9.2 mph - N/A   Partly Cloudy
4:54 AM 19.9 °F 9.3 °F 18.0 °F 92% 30.22 in 4.0 mi WSW 9.2 mph - N/A   Scattered Clouds
5:25 AM 19.4 °F 10.4 °F 17.6 °F 93% 30.12 in 4.0 mi WSW 6.9 mph - N/A   Mostly Cloudy
5:54 AM 21.9 °F 12.5 °F 19.0 °F 89% 30.24 in 5.0 mi West 8.1 mph - N/A   Overcast
6:13 AM 21.2 °F 10.1 °F 17.6 °F 86% 30.14 in 6.0 mi West 10.4 mph - N/A   Overcast
6:54 AM 21.9 °F 12.5 °F 18.0 °F 85% 30.27 in 6.0 mi West 8.1 mph - N/A   Overcast
7:28 AM 21.2 °F 11.7 °F 17.6 °F 86% 30.18 in 7.0 mi West 8.1 mph - N/A   Overcast
7:54 AM 21.9 °F 11.7 °F 17.1 °F 82% 30.30 in 6.0 mi West 9.2 mph - N/A   Haze
8:54 AM 23.0 °F 13.9 °F 17.1 °F 78% 30.33 in 5.0 mi West 8.1 mph - N/A   Haze
9:54 AM 24.1 °F 15.2 °F 17.1 °F 75% 30.36 in 6.0 mi West 8.1 mph - N/A   Haze
10:08 AM 24.8 °F 16.1 °F 17.6 °F 74% 30.26 in 6.0 mi West 8.1 mph - N/A   Haze
10:28 AM 24.8 °F 16.9 °F 17.6 °F 74% 30.27 in 7.0 mi WNW 6.9 mph - N/A   Overcast
10:54 AM 25.0 °F 16.3 °F 18.0 °F 75% 30.38 in 7.0 mi WNW 8.1 mph - N/A   Overcast
11:54 AM 26.1 °F 16.8 °F 18.0 °F 71% 30.40 in 8.0 mi WNW 9.2 mph - N/A   Overcast
12:54 PM 28.9 °F 21.9 °F 17.1 °F 61% 30.39 in 9.0 mi NW 6.9 mph - N/A   Overcast
1:54 PM 30.0 °F 25.2 °F 16.0 °F 56% 30.37 in 10.0 mi North 4.6 mph - N/A   Scattered Clouds
2:21 PM 28.4 °F 21.2 °F 17.6 °F 64% 30.28 in 10.0 mi North 6.9 mph - N/A   Mostly Cloudy
2:54 PM 28.9 °F 21.9 °F 17.1 °F 61% 30.38 in 10.0 mi NNW 6.9 mph - N/A   Mostly Cloudy
3:01 PM 28.4 °F 22.2 °F 17.6 °F 64% 30.29 in 10.0 mi NW 5.8 mph - N/A   Mostly Cloudy
3:19 PM 30.2 °F 22.6 °F 19.4 °F 64% 30.30 in 10.0 mi NNW 8.1 mph - N/A   Mostly Cloudy
3:54 PM 28.9 °F 21.1 °F 18.0 °F 64% 30.42 in 10.0 mi NNW 8.1 mph - N/A   Overcast
4:08 PM 28.4 °F 23.3 °F 17.6 °F 64% 30.32 in 10.0 mi NW 4.6 mph - N/A   Overcast
4:54 PM 28.0 °F 20.8 °F 19.0 °F 69% 30.44 in 8.0 mi North 6.9 mph - N/A   Overcast
5:49 PM 26.6 °F 21.2 °F 19.4 °F 74% 30.34 in 7.0 mi North 4.6 mph - N/A   Overcast
5:54 PM 27.0 °F 19.5 °F 18.0 °F 69% 30.45 in 7.0 mi North 6.9 mph - N/A   Overcast
6:54 PM 26.1 °F 19.4 °F 19.0 °F 75% 30.47 in 7.0 mi NNE 5.8 mph - N/A   Overcast
7:54 PM 25.0 °F 18.1 °F 18.0 °F 75% 30.48 in 7.0 mi NNE 5.8 mph - N/A   Overcast
8:54 PM 23.0 °F 13.9 °F 17.1 °F 78% 30.50 in 7.0 mi NNE 8.1 mph - N/A   Mostly Cloudy
9:29 PM 21.2 °F 14.9 °F 15.8 °F 80% 30.39 in 7.0 mi ENE 4.6 mph - N/A   Scattered Clouds
9:54 PM 21.9 °F 17.2 °F 15.1 °F 75% 30.51 in 7.0 mi ENE 3.5 mph - N/A   Clear
10:54 PM 19.9 °F 13.4 °F 15.1 °F 81% 30.51 in 7.0 mi East 4.6 mph - N/A   Clear
11:54 PM 19.9 °F 12.1 °F 15.1 °F 81% 30.51 in 7.0 mi East 5.8 mph - N/A   Clear